CW5039 Weather Reports


Display with metric or nautical units.
time (UTC)temp
F
wind
direction
speed
MPH
gust
MPH
rain 1hr
in
rain 24hr
in
rain mn
in
humidity
%
barometer
mb
20200710123406 38 49 3.0 3.0 0.00 0.00 0.00 95 1021.7
20200710122408 38 55 2.0 3.0 0.00 0.00 0.00 95 1021.7
20200710121906 38 55 2.0 3.0 0.00 0.00 0.00 96 1021.7
20200710121406 38 55 3.0 3.0 0.00 0.00 0.00 96 1021.7
20200710120905 36 52 2.0 3.0 0.00 0.00 0.00 95 1021.9
20200710120406 36 43 1.0 2.0 0.00 0.00 0.00 95 1021.9
20200710115906 36 43 3.0 3.0 0.00 0.00 0.00 95 1021.7
20200710114405 35 38 2.0 3.0 0.00 0.00 0.00 95 1021.8
20200710113405 35 34 4.0 5.0 0.00 0.00 0.00 94 1021.7
20200710112906 35 27 3.0 3.0 0.00 0.00 0.00 94 1021.8
20200710111907 36 55 2.0 3.0 0.00 0.00 0.00 94 1021.9
20200710111405 36 70 2.0 3.0 0.00 0.00 0.00 94 1022.0
20200710110905 37 107 3.0 3.0 0.00 0.00 0.00 95 1022.0
20200710105905 37 113 3.0 6.0 0.00 0.00 0.00 95 1022.0
20200710105406 37 119 4.0 6.0 0.00 0.00 0.00 94 1022.0
20200710104905 37 98 1.0 2.0 0.00 0.00 0.00 94 1022.0
20200710104406 38 98 1.0 2.0 0.00 0.00 0.00 94 1022.0
20200710102906 38 316 2.0 3.0 0.00 0.00 0.00 94 1022.0
20200710101406 39 316 0.0 1.0 0.00 0.00 0.00 94 1022.1
20200710100906 39 316 1.0 1.0 0.00 0.00 0.00 95 1022.1
20200710095906 39 316 1.0 1.0 0.00 0.00 0.00 95 1022.2
20200710095406 38 316 1.0 2.0 0.00 0.00 0.00 95 1022.2
20200710094905 38 316 2.0 3.0 0.00 0.00 0.00 94 1022.2
20200710094406 37 317 2.0 3.0 0.00 0.00 0.00 94 1022.2
20200710093907 37 320 1.0 2.0 0.00 0.00 0.00 94 1022.1
20200710091906 38 294 2.0 3.0 0.00 0.00 0.00 94 1021.9
20200710091406 38 254 2.0 3.0 0.00 0.00 0.00 93 1022.0
20200710090908 38 218 2.0 3.0 0.00 0.00 0.00 93 1022.0
20200710085905 39 218 1.0 2.0 0.00 0.00 0.00 93 1022.0
20200710085405 39 218 1.0 2.0 0.00 0.00 0.00 93 1021.9
20200710084906 39 218 2.0 3.0 0.00 0.00 0.00 93 1021.9
20200710084406 39 218 1.0 2.0 0.00 0.00 0.00 94 1021.8
20200710083907 39 218 2.0 3.0 0.00 0.00 0.00 93 1021.8
20200710083406 39 218 2.0 3.0 0.00 0.00 0.00 93 1021.8
20200710082405 39 173 0.0 0.0 0.00 0.00 0.00 93 1021.8
20200710080905 39 173 0.0 0.0 0.00 0.00 0.00 92 1021.8
20200710075406 40 173 0.0 0.0 0.00 0.00 0.00 92 1021.7
20200710074907 41 173 0.0 0.0 0.00 0.00 0.00 92 1021.7
20200710074406 41 173 0.0 0.0 0.00 0.00 0.00 92 1021.7
20200710073906 42 173 1.0 3.0 0.00 0.00 0.00 92 1021.7
20200710073406 42 173 1.0 2.0 0.00 0.00 0.00 92 1021.6
20200710072907 43 173 2.0 3.0 0.00 0.00 0.00 92 1021.6
20200710072405 43 173 3.0 3.0 0.00 0.00 0.00 92 1021.6
20200710071407 44 157 2.0 3.0 0.00 0.00 0.00 92 1021.6
20200710070906 44 157 2.0 3.0 0.00 0.00 0.00 92 1021.5
20200710070406 43 70 0.0 3.0 0.00 0.00 0.00 92 1021.4
20200710065906 44 56 0.0 0.0 0.00 0.00 0.00 90 1021.4
20200710065406 45 56 0.0 0.0 0.00 0.00 0.00 92 1021.5
20200710064906 45 56 0.0 0.0 0.00 0.00 0.00 92 1021.3
20200710064407 45 56 1.0 3.0 0.00 0.00 0.00 91 1021.4
20200710063906 45 10 0.0 2.0 0.00 0.00 0.00 92 1021.3
20200710063406 45 5 1.0 2.0 0.00 0.00 0.00 91 1021.2
20200710062906 45 5 2.0 2.0 0.00 0.00 0.00 91 1021.2
20200710061906 45 20 0.0 0.0 0.00 0.00 0.00 90 1021.2
20200710061405 46 20 0.0 0.0 0.00 0.00 0.00 89 1021.2
20200710060906 46 20 1.0 2.0 0.00 0.00 0.00 89 1021.2
20200710060409 47 20 1.0 3.0 0.00 0.00 0.00 90 1021.1
20200710054906 48 57 0.0 0.0 0.00 0.00 0.00 88 1021.1
20200710054406 49 80 0.0 0.0 0.00 0.00 0.00 87 1021.1
20200710053906 50 80 0.0 0.0 0.00 0.00 0.00 87 1021.1
20200710053405 50 80 0.0 0.0 0.00 0.00 0.00 87 1021.1
20200710052906 51 80 0.0 0.0 0.00 0.00 0.00 86 1021.1
20200710051407 52 80 0.0 0.0 0.00 0.00 0.00 85 1021.1
20200710050907 52 80 0.0 0.0 0.00 0.00 0.00 84 1021.1
20200710045406 53 100 0.0 0.0 0.00 0.00 0.00 83 1021.0
20200710044906 54 104 0.0 0.0 0.00 0.00 0.00 82 1021.0
20200710043905 55 106 0.0 3.0 0.00 0.00 0.00 81 1020.9
20200710043406 55 104 2.0 3.0 0.00 0.00 0.00 81 1020.9
20200710042406 56 91 2.0 3.0 0.00 0.00 0.00 80 1020.8
20200710041406 56 69 3.0 3.0 0.00 0.00 0.00 79 1020.7
20200710040406 56 57 3.0 3.0 0.00 0.00 0.00 78 1020.8
20200710035405 55 0 1.0 2.0 0.00 0.00 0.00 80 1020.8
20200710034905 54 355 2.0 3.0 0.00 0.00 0.00 81 1020.8
20200710034406 54 355 1.0 2.0 0.00 0.00 0.00 80 1020.8
20200710033906 54 355 1.0 2.0 0.00 0.00 0.00 80 1020.8
20200710033405 55 355 1.0 2.0 0.00 0.00 0.00 79 1020.8
20200710032406 55 355 2.0 3.0 0.00 0.00 0.00 77 1020.9
20200710031906 56 350 1.0 3.0 0.00 0.00 0.00 74 1020.9
20200710030906 57 22 1.0 3.0 0.00 0.00 0.00 72 1021.0
20200710030406 57 5 2.0 3.0 0.00 0.00 0.00 73 1021.0
20200710025906 58 26 1.0 3.0 0.00 0.00 0.00 72 1021.0
20200710025407 57 14 0.0 3.0 0.00 0.00 0.00 73 1021.0
20200710024906 57 17 2.0 3.0 0.00 0.00 0.00 72 1021.0
20200710024406 57 9 0.0 2.0 0.00 0.00 0.00 72 1021.0
20200710023407 57 12 2.0 3.0 0.00 0.00 0.00 71 1021.0
20200710022907 56 348 2.0 3.0 0.00 0.00 0.00 73 1021.1
20200710021906 55 338 1.0 3.0 0.00 0.00 0.00 74 1021.1
20200710020905 55 6 2.0 3.0 0.00 0.00 0.00 75 1021.1
20200710015405 55 0 2.0 3.0 0.00 0.00 0.00 73 1021.1
20200710014906 55 357 1.0 5.0 0.00 0.00 0.00 72 1021.1
20200710014406 55 344 0.0 0.0 0.00 0.00 0.00 73 1021.2
20200710013905 54 352 0.0 0.0 0.00 0.00 0.00 73 1021.2
20200710013406 54 12 0.0 0.0 0.00 0.00 0.00 74 1021.2
20200710012907 54 40 0.0 0.0 0.00 0.00 0.00 75 1021.3
20200710011906 53 38 0.0 0.0 0.00 0.00 0.00 73 1021.4
20200710011406 53 28 0.0 0.0 0.00 0.00 0.00 73 1021.5
20200710010906 52 24 0.0 0.0 0.00 0.00 0.00 73 1021.5
20200710010406 52 34 0.0 0.0 0.00 0.00 0.00 74 1021.6
20200710005406 51 10 2.0 3.0 0.00 0.00 0.00 74 1021.7
20200710004907 51 49 2.0 3.0 0.00 0.00 0.00 74 1021.7
20200710004405 51 355 3.0 3.0 0.00 0.00 0.00 73 1021.7
20200710003907 51 42 2.0 3.0 0.00 0.00 0.00 75 1021.8
20200710003406 51 56 1.0 3.0 0.00 0.00 0.00 75 1021.9
20200710002414 51 71 2.0 3.0 0.00 0.00 0.00 73 1022.0
20200710001906 51 66 2.0 3.0 0.00 0.00 0.00 75 1022.1
20200710001405 51 108 2.0 3.0 0.00 0.00 0.00 75 1022.2
20200710000906 50 104 1.0 2.0 0.00 0.00 0.00 76 1022.2
20200710000406 50 116 1.0 2.0 0.00 0.00 0.00 77 1022.2
20200709235905 50 139 1.0 2.0 0.00 0.00 0.00 77 1022.3
20200709235406 49 135 2.0 3.0 0.00 0.00 0.00 77 1022.3
20200709234405 48 257 0.0 1.0 0.00 0.00 0.00 80 1022.5
20200709233906 48 257 1.0 2.0 0.00 0.00 0.00 82 1022.6
20200709232406 46 258 2.0 6.0 0.00 0.00 0.00 82 1022.7
20200709231906 46 287 1.0 3.0 0.00 0.00 0.00 82 1022.8
20200709231405 46 287 2.0 3.0 0.00 0.00 0.00 83 1022.9
20200709230406 45 288 2.0 3.0 0.00 0.00 0.00 84 1023.0
20200709225907 46 288 2.0 3.0 0.00 0.00 0.00 84 1023.1
20200709225407 45 261 1.0 3.0 0.00 0.00 0.00 86 1023.2
20200709224406 44 190 1.0 2.0 0.00 0.00 0.00 87 1023.2
20200709223906 44 190 1.0 2.0 0.00 0.00 0.00 88 1023.2
20200709223406 44 189 1.0 2.0 0.00 0.00 0.00 90 1023.2
20200709222906 43 189 1.0 2.0 0.00 0.00 0.00 90 1023.2
20200709222406 42 190 1.0 3.0 0.00 0.00 0.00 91 1023.3
20200709221905 42 189 1.0 2.0 0.00 0.00 0.00 91 1023.2
20200709221405 41 189 1.0 1.0 0.00 0.00 0.00 92 1023.2
20200709220906 40 189 1.0 2.0 0.00 0.00 0.00 92 1023.2
20200709215906 39 189 1.0 3.0 0.00 0.00 0.00 92 1023.2
20200709215406 39 186 1.0 2.0 0.00 0.00 0.00 92 1023.2
20200709213906 38 176 0.0 2.0 0.00 0.00 0.00 92 1023.2
20200709213406 38 176 0.0 1.0 0.00 0.00 0.00 93 1023.1
20200709212905 38 176 0.0 1.0 0.00 0.00 0.00 93 1023.1
20200709212406 37 176 1.0 1.0 0.00 0.00 0.00 93 1023.1
20200709211906 37 179 0.0 1.0 0.00 0.00 0.00 94 1023.1
20200709211406 36 179 0.0 1.0 0.00 0.00 0.00 94 1023.1
20200709210906 34 178 0.0 1.0 0.00 0.00 0.00 94 1023.0
20200709210406 34 176 0.0 2.0 0.00 0.00 0.00 94 1022.8
20200709205906 34 184 1.0 2.0 0.00 0.00 0.00 95 1022.9
20200709204906 32 187 2.0 3.0 0.00 0.00 0.00 94 1022.9
20200709204406 31 158 1.0 3.0 0.00 0.00 0.00 94 1023.0
20200709203906 31 156 2.0 3.0 0.00 0.00 0.00 94 1022.9
20200709202406 30 91 0.0 1.0 0.00 0.00 0.00 94 1022.8
20200709201907 29 91 0.0 2.0 0.00 0.00 0.00 93 1022.8
20200709200906 30 92 2.0 3.0 0.00 0.00 0.00 94 1022.7
20200709194907 29 84 2.0 3.0 0.00 0.01 0.00 94 1022.5
20200709194405 29 84 3.0 3.0 0.00 0.01 0.00 93 1022.4
20200709193905 30 101 2.0 3.0 0.00 0.01 0.00 94 1022.4
20200709193409 30 104 3.0 3.0 0.00 0.01 0.00 94 1022.3
20200709192907 30 110 3.0 3.0 0.00 0.01 0.00 94 1022.2
20200709191408 29 240 1.0 2.0 0.00 0.01 0.00 94 1022.1
20200709190906 29 240 1.0 3.0 0.00 0.01 0.00 94 1021.9
20200709185906 28 240 1.0 3.0 0.00 0.01 0.00 94 1021.8
20200709184906 28 240 2.0 3.0 0.00 0.01 0.00 93 1021.8
20200709184408 29 240 0.0 0.0 0.00 0.01 0.00 93 1021.7
20200709183907 29 240 0.0 0.0 0.00 0.01 0.00 93 1021.6
20200709183406 29 240 0.0 2.0 0.00 0.01 0.00 94 1021.6
20200709182406 30 240 0.0 1.0 0.00 0.01 0.00 94 1021.3
20200709181906 30 240 1.0 2.0 0.00 0.01 0.00 94 1021.3
20200709180906 30 240 3.0 3.0 0.00 0.01 0.00 94 1021.2
20200709180406 29 241 3.0 3.0 0.00 0.01 0.00 93 1021.2
20200709175406 29 235 3.0 3.0 0.00 0.01 0.00 93 1021.3
20200709174407 30 202 1.0 2.0 0.00 0.01 0.00 93 1021.2
20200709173910 30 202 1.0 1.0 0.00 0.01 0.00 93 1021.2
20200709173406 30 202 0.0 1.0 0.00 0.01 0.00 93 1021.1
20200709172908 30 202 1.0 2.0 0.00 0.01 0.00 93 1021.1
20200709171906 30 202 2.0 3.0 0.00 0.01 0.00 93 1021.1
20200709171405 30 200 3.0 3.0 0.00 0.01 0.00 93 1021.1
20200709170406 31 191 5.0 6.0 0.00 0.01 0.00 93 1021.1
20200709165908 31 184 5.0 5.0 0.00 0.01 0.00 94 1021.1
20200709165406 31 184 5.0 5.0 0.00 0.01 0.00 94 1021.1
20200709164908 30 188 5.0 5.0 0.00 0.01 0.00 94 1021.1
20200709163905 29 187 4.0 5.0 0.00 0.02 0.00 93 1021.1
20200709162914 29 220 3.0 3.0 0.00 0.02 0.00 93 1021.1
20200709161406 30 238 3.0 3.0 0.00 0.02 0.00 92 1021.0
20200709160909 31 238 1.0 3.0 0.00 0.02 0.00 93 1021.0
20200709160406 31 238 3.0 5.0 0.00 0.02 0.00 93 1021.0
20200709155908 31 234 3.0 3.0 0.00 0.02 0.00 93 1021.0
20200709155409 31 215 2.0 3.0 0.00 0.02 0.00 93 1021.0
20200709154906 31 205 2.0 3.0 0.00 0.02 0.00 93 1021.0
20200709154406 31 109 2.0 3.0 0.00 0.02 0.00 93 1021.0
20200709153906 31 108 2.0 2.0 0.00 0.02 0.00 93 1020.9
20200709153406 31 108 2.0 3.0 0.00 0.02 0.00 93 1020.9
20200709152906 30 108 1.0 3.0 0.00 0.02 0.00 93 1020.9
20200709151405 31 108 2.0 3.0 0.00 0.02 0.00 93 1021.0
20200709150907 31 105 1.0 3.0 0.00 0.02 0.00 92 1021.0
20200709150405 31 111 1.0 3.0 0.00 0.02 0.00 92 1020.9
20200709145906 32 111 2.0 3.0 0.00 0.02 0.00 92 1020.9
20200709145408 33 126 2.0 3.0 0.00 0.02 0.00 94 1020.8
20200709144405 31 129 3.0 3.0 0.00 0.02 0.00 93 1020.7
20200709143905 31 112 2.0 3.0 0.00 0.02 0.00 92 1020.7
20200709143437 31 107 0.0 1.0 0.00 0.02 0.00 92 1020.7
20200709142405 31 107 0.0 1.0 0.00 0.02 0.00 91 1020.8
20200709141406 32 107 2.0 3.0 0.00 0.02 0.00 92 1020.7
20200709140905 33 99 3.0 3.0 0.00 0.02 0.00 92 1020.7
20200709140406 33 290 2.0 3.0 0.00 0.02 0.00 92 1020.6
20200709135906 33 290 3.0 3.0 0.00 0.02 0.00 92 1020.6
20200709135405 33 290 0.0 1.0 0.00 0.02 0.00 92 1020.6
20200709134905 33 290 2.0 3.0 0.00 0.02 0.00 92 1020.6
20200709133905 34 290 2.0 3.0 0.00 0.02 0.00 93 1020.4
20200709133405 34 290 2.0 3.0 0.00 0.02 0.00 93 1020.4
20200709132907 34 295 3.0 3.0 0.00 0.02 0.00 92 1020.3
20200709132405 34 309 2.0 3.0 0.00 0.02 0.00 92 1020.4
20200709130405 34 345 2.0 3.0 0.00 0.02 0.00 92 1020.3
20200709125406 33 345 1.0 2.0 0.00 0.02 0.00 92 1020.2
20200709124906 33 345 1.0 3.0 0.00 0.02 0.00 91 1020.2
20200709124405 33 345 2.0 3.0 0.00 0.02 0.00 91 1020.1